Dewpoint
48 49 49 50 49 49 49 49 49 49 50 50 51 52 53 54 53 46 43 49 50 49 47 41 37 36 32 32 34 34 15 13 17 18 18 27 27 28 30 28 27 26 23 24 27
50 49 50 49 50 49 50 50 50 50 50 50 51 52 53 54 51 44 49 50 50 48 41 38 33 35 29 31 31 24 7 18 25 25 26 30 29 28 27 26 26 26 27 27 29
50 50 49 49 50 50 50 50 50 50 50 51 51 52 53 53 44 42 51 50 48 46 43 39 37 34 28 31 31 28 12 28 26 30 33 31 29 30 28 25 26 23 26 29 32
50 50 50 50 50 49 50 49 50 50 50 50 50 52 53 49 22 46 51 48 46 45 40 37 35 30 26 24 34 21 29 30 30 33 32 30 32 30 31 28 29 28 31 32 32
50 50 50 50 50 50 50 50 50 50 50 50 51 52 49 36 38 49 49 46 44 43 41 38 35 32 22 33 33 29 30 33 33 34 34 33 31 31 31 32 33 33 32 31 30
50 49 50 51 51 50 50 50 50 50 50 50 50 51 46 28 47 50 46 44 43 42 41 41 39 40 36 33 31 35 34 34 34 33 33 32 31 31 28 32 31 30 29 29 30
50 50 51 51 51 50 50 50 51 51 51 51 51 49 43 39 45 44 42 43 43 43 40 42 42 36 38 32 37 36 31 31 31 32 27 32 26 27 29 32 30 29 29 30 30
50 50 51 52 51 50 50 50 51 51 51 52 51 48 39 43 45 42 43 42 43 43 43 43 42 41 38 38 34 33 27 15 23 26 27 28 17 22 27 28 28 29 30 30 30
51 50 52 53 51 50 51 51 52 52 52 52 46 44 36 42 38 43 42 39 41 42 43 44 42 38 36 29 19 23 14 20 21 28 27 27 23 24 26 28 28 29 29 30 30
54 53 54 53 51 51 51 51 51 50 51 51 48 35 39 35 41 42 43 42 40 40 39 40 36 32 31 21 5 17 21 24 23 25 28 28 27 27 28 28 28 29 29 28 28
55 54 54 53 51 50 49 41 30 26 37 33 37 38 36 39 40 38 43 40 40 37 28 37 25 16 27 29 27 27 27 25 26 27 27 27 27 27 28 28 27 26 26 26 27
56 55 54 52 50 49 45 40 42 42 33 38 38 38 36 38 33 37 42 36 33 23 32 25 14 26 32 30 29 28 26 23 25 28 28 27 27 27 26 26 26 26 26 27 27
53 55 54 51 49 43 44 42 45 44 35 30 37 34 34 36 31 32 39 37 32 28 30 23 22 32 31 29 27 27 25 23 22 29 28 27 19 21 23 26 27 25 29 33 33
52 53 53 48 43 42 44 46 45 40 22 12 29 36 36 36 34 41 40 36 33 27 31 29 31 29 29 28 29 21 28 28 28 27 19 27 11 20 22 23 22 21 31 29 29
50 52 53 46 44 42 44 46 44 33 -15 19 32 41 39 35 37 38 40 37 25 31 29 10 27 29 28 27 30 21 30 30 29 27 26 24 23 17 21 15 14 20 29 28 28
50 51 53 46 44 43 46 45 38 13 -13 22 34 32 34 35 36 39 38 39 39 32 34 30 34 32 29 31 31 31 28 23 23 24 16 19 19 12 14 13 17 25 27 28 28
49 50 50 46 43 45 45 37 17 3 13 18 26 35 31 32 32 36 34 33 22 10 14 24 27 33 32 30 29 27 22 12 7 7 5 22 18 16 17 18 18 20 24 28 29
48 49 51 46 46 46 41 25 12 8 16 25 30 32 27 31 31 34 31 25 32 27 24 16 -3 28 32 29 23 26 23 16 8 8 11 18 18 14 21 23 23 25 29 29 30
49 48 47 47 47 45 36 25 19 15 20 21 25 25 22 27 25 30 30 25 26 31 13 16 16 25 32 31 28 25 24 23 19 21 20 18 19 17 19 19 23 24 25 26 29
45 45 44 47 47 43 36 28 25 27 30 29 21 22 15 23 23 26 22 24 26 32 28 23 16 22 25 30 29 26 26 22 22 16 12 13 15 13 15 17 20 22 23 26 32
44 38 43 47 45 40 30 29 30 32 31 29 23 20 20 20 20 23 19 18 26 29 29 27 24 20 24 21 18 25 25 26 24 21 17 14 11 18 17 18 20 23 24 29 34
42 33 43 46 37 35 32 33 33 32 32 30 25 23 22 22 23 22 20 16 25 28 25 28 26 23 21 22 25 24 24 25 21 19 23 20 17 19 19 20 22 23 24 32 36
39 38 45 45 30 30 34 33 34 32 30 30 30 29 26 25 24 19 19 23 28 27 25 27 23 19 17 17 21 21 23 23 22 22 19 18 15 19 18 19 22 22 24 32 38
37 31 37 41 38 33 31 32 32 35 33 36 32 32 30 28 28 25 25 27 29 28 31 30 25 22 19 18 19 18 19 21 23 22 20 19 18 19 19 20 21 24 25 35 39
36 33 35 29 32 33 33 32 30 30 34 35 32 33 31 30 30 29 29 31 31 32 31 30 26 26 25 25 26 26 26 26 25 25 23 21 21 21 21 21 23 22 30 38 37
34 33 35 32 34 31 31 31 29 28 29 29 29 29 32 29 31 30 32 31 31 33 32 34 28 30 26 27 26 25 25 26 25 25 23 23 22 23 22 21 19 24 37 38 38
38 38 36 29 31 29 29 30 31 32 31 31 30 31 31 33 35 31 31 34 35 32 29 29 29 27 21 24 25 20 22 22 20 20 19 17 16 17 19 19 21 31 35 37 39
Wind_Speed
11 13 13 13 14 16 17 17 17 17 18 19 20 20 20 22 17 6 7 7 12 18 15 10 8 11 5 5 6 2 4 3 2 2 3 4 9 3 2 7 4 6 5 4 10
11 12 14 14 15 16 17 17 17 18 17 17 19 20 19 20 5 6 5 12 16 19 10 14 10 9 5 4 5 5 3 3 1 2 4 9 6 12 7 8 8 8 11 11 10
12 12 13 14 15 16 17 17 17 17 17 17 18 19 19 11 2 3 9 13 16 16 6 5 2 3 6 4 6 4 2 0 2 1 2 7 11 3 6 12 9 10 11 14 16
11 13 13 13 15 16 18 17 17 17 16 16 17 18 19 2 0 3 10 14 12 13 12 11 8 4 4 4 5 3 1 1 4 0 6 9 8 9 11 20 7 10 16 18 21
10 12 14 13 15 17 18 17 18 17 15 15 16 16 5 2 2 3 8 11 7 6 15 8 13 4 4 3 4 2 3 6 8 14 12 9 16 16 24 25 22 21 18 20 20
9 10 13 16 16 18 18 17 17 16 15 13 13 12 2 1 0 3 7 7 10 9 13 10 5 3 4 2 2 3 9 14 8 5 8 10 11 2 16 8 12 15 22 23 23
11 11 11 14 19 20 20 18 16 15 14 11 8 3 1 1 3 4 5 4 5 6 5 5 4 2 1 2 4 3 8 10 2 0 6 2 12 14 25 15 18 22 24 25 25
14 13 14 14 17 21 22 20 18 14 9 6 4 1 2 1 2 4 4 3 4 3 3 2 3 2 2 2 4 4 3 10 1 6 2 5 19 28 13 15 24 24 24 21 25
12 14 16 15 18 21 23 23 13 2 1 2 1 2 2 3 0 0 2 3 5 2 2 2 2 3 3 4 3 9 7 8 12 2 3 2 24 31 30 20 23 22 21 21 22
14 15 16 16 18 21 24 12 3 2 1 1 1 2 2 0 1 0 2 2 2 3 2 4 5 3 3 7 6 7 6 5 14 7 8 18 29 33 26 17 23 22 22 20 18
13 12 13 15 18 22 12 3 5 1 3 2 1 3 2 0 1 1 1 3 2 3 2 3 2 2 2 2 2 2 6 12 17 12 15 9 23 40 31 22 15 16 19 22 20
13 10 12 13 18 17 5 6 2 2 9 3 5 5 3 1 3 2 1 1 1 0 1 2 2 2 4 2 3 4 10 12 14 3 13 20 28 32 22 15 10 14 19 16 12
13 14 10 13 15 5 6 4 2 3 4 6 3 2 2 4 3 2 3 2 1 0 1 3 0 3 1 3 6 7 8 7 12 14 7 17 11 10 16 9 8 9 5 4 7
14 14 8 15 1 3 1 4 3 2 4 3 2 1 2 3 2 1 1 1 0 0 1 5 3 1 1 5 4 9 4 8 12 15 9 9 12 16 7 17 15 7 3 5 6
16 11 4 4 4 0 2 4 1 1 6 1 2 1 2 3 4 0 2 2 2 2 1 2 0 2 4 4 7 6 7 13 6 5 5 1 3 13 7 12 10 8 9 10 12
16 8 3 2 1 2 2 2 2 1 8 1 2 3 3 2 2 3 2 3 2 1 1 8 3 3 4 1 7 8 9 4 3 2 4 3 2 18 9 6 7 4 12 15 17
14 5 5 2 2 1 1 2 2 6 3 3 3 4 3 5 3 5 3 3 4 1 1 3 3 2 3 2 1 2 8 8 5 4 6 8 7 22 14 17 17 20 21 16 20
10 5 4 4 2 1 1 2 7 3 4 2 2 4 3 6 2 4 2 3 6 3 1 1 3 5 5 5 1 0 2 2 7 6 16 9 11 9 11 13 13 13 12 19 21
2 2 1 5 8 2 3 6 6 4 4 5 2 1 1 2 2 3 5 4 6 14 4 3 5 2 5 2 2 2 5 1 4 1 6 7 10 19 10 3 5 12 17 26 21
2 2 4 2 9 4 3 8 7 5 5 5 3 1 2 1 2 2 2 3 3 11 2 3 5 3 2 2 2 5 7 2 1 6 8 12 12 22 21 23 11 17 25 22 18
2 2 3 2 5 3 11 8 7 4 4 3 2 3 0 1 2 3 2 4 4 3 6 5 4 2 2 6 8 4 4 2 1 5 5 10 21 14 22 23 18 23 22 18 24
2 3 3 2 6 3 5 4 3 4 4 2 3 3 3 2 3 3 6 4 5 4 4 4 3 7 10 9 3 2 4 7 6 4 7 5 37 24 26 15 16 31 21 16 21
3 0 2 2 8 8 1 4 2 3 3 1 2 2 1 2 5 8 4 3 8 2 2 2 2 6 10 3 3 3 5 4 3 2 27 17 23 4 13 36 32 24 22 17 21
1 0 1 2 1 2 3 6 5 3 2 3 3 4 10 17 12 5 3 2 7 5 5 1 6 12 17 12 12 13 10 17 11 13 28 34 47 46 43 35 30 28 16 17 19
2 2 2 3 4 3 4 3 4 4 2 5 1 2 6 5 5 12 5 7 5 7 4 3 5 11 18 16 14 18 19 24 26 32 22 49 39 46 42 33 32 18 14 15 18
1 1 1 1 2 2 6 4 8 8 4 4 5 6 2 5 5 4 5 1 4 7 5 6 4 5 10 14 20 27 21 29 29 29 28 34 43 46 34 19 22 15 11 16 19
3 4 2 3 1 0 1 4 2 1 5 7 2 3 7 10 3 7 12 8 8 3 3 3 3 4 9 4 14 21 22 20 8 11 15 20 33 17 29 20 22 12 10 18 14
Wind_Direction
348 350 349 350 347 348 347 347 343 344 345 344 343 344 346 345 338 13 37 333 333 336 337 337 12 13 35 51 38 66 78 158 200 198 286 339 344 261 260 259 266 257 240 249 321
349 347 343 346 347 345 342 340 341 340 339 341 340 340 341 342 343 21 322 339 342 346 353 9 4 5 56 29 24 56 88 182 169 255 280 309 296 302 306 293 280 269 275 294 312
340 341 345 343 348 341 338 338 339 336 336 338 339 336 335 333 343 344 339 343 349 351 328 348 328 50 66 25 16 8 81 15 241 267 310 295 295 248 286 297 248 289 295 305 305
337 336 342 343 341 341 339 336 334 330 332 333 335 335 332 322 194 337 343 348 353 5 32 16 30 50 67 54 356 50 35 246 286 264 316 293 297 283 227 258 257 258 284 295 295
343 339 336 337 336 338 336 331 329 327 328 328 331 337 356 19 296 339 345 347 358 9 35 30 44 44 75 21 4 50 313 302 282 296 278 270 275 272 271 263 277 280 286 281 283
334 342 336 335 336 336 332 328 326 322 321 321 325 336 20 268 115 342 353 356 14 29 34 37 58 42 94 87 47 311 291 288 297 282 272 274 286 293 275 263 279 294 293 285 287
328 334 340 335 333 334 330 325 320 316 314 315 322 1 49 180 347 339 352 355 9 29 47 39 24 69 84 46 349 331 332 325 236 337 305 336 284 238 258 292 294 286 282 281 280
322 327 333 335 332 331 329 322 311 304 304 309 327 59 237 2 326 328 350 347 354 19 60 9 9 77 60 309 29 8 39 358 248 325 350 63 291 285 280 300 298 289 287 288 285
310 318 324 331 329 329 327 322 315 266 336 319 1 33 255 351 355 105 31 346 330 13 22 336 45 52 24 39 51 27 326 326 320 268 271 74 291 289 304 308 296 294 296 297 297
302 310 320 325 327 327 329 327 307 22 98 145 284 334 329 300 154 56 18 33 18 345 67 44 46 59 34 32 341 323 326 291 286 299 305 293 281 290 296 302 298 302 305 302 301
278 300 315 323 327 331 346 10 0 319 27 242 236 269 244 267 88 50 5 2 25 42 39 23 6 242 159 146 171 239 272 283 281 289 313 297 297 297 303 309 310 311 316 318 316
296 297 309 321 327 335 23 60 79 228 309 310 251 252 247 157 308 237 87 102 36 280 45 356 276 165 137 259 267 250 289 295 296 238 328 308 299 292 296 287 284 312 314 326 350
328 316 305 319 324 20 48 54 17 143 288 301 242 212 186 158 233 260 156 127 114 132 121 256 187 118 237 311 293 278 255 277 289 327 294 328 296 298 308 278 303 321 303 22 43
322 322 306 326 11 345 19 340 10 102 340 259 211 243 137 147 216 103 171 86 105 105 299 260 307 147 200 268 187 294 218 286 299 332 312 38 293 303 305 297 305 305 274 306 318
312 305 281 359 299 112 308 329 32 82 290 172 181 144 137 185 145 105 21 57 190 163 111 274 300 277 279 254 175 267 323 304 305 269 322 295 246 271 299 303 298 291 261 282 294
300 298 213 232 227 229 318 333 75 32 247 204 135 184 158 205 193 134 140 73 103 41 265 254 285 245 219 279 217 307 317 336 73 93 283 206 189 286 285 260 282 259 267 284 317
296 266 209 198 246 189 4 19 325 218 347 203 189 180 226 189 204 199 179 190 198 266 326 301 236 248 190 291 131 41 2 327 318 322 273 167 287 252 271 264 272 287 291 306 308
310 299 240 248 132 47 59 81 231 271 265 332 147 151 209 167 207 187 212 263 215 142 131 331 302 192 175 211 228 328 156 235 284 296 298 249 241 262 255 279 264 283 279 298 295
306 23 245 237 213 55 181 193 229 232 316 351 306 206 256 200 226 186 230 245 213 185 173 174 273 285 214 171 153 176 212 233 274 249 288 256 282 292 277 292 297 289 301 301 303
116 208 233 318 162 152 191 225 226 222 12 354 301 245 204 119 158 184 250 229 253 199 172 165 286 264 325 137 210 209 154 271 332 298 295 285 276 255 298 300 306 313 313 303 299
128 248 339 324 126 156 216 229 246 253 61 313 305 297 307 71 133 178 244 301 274 183 173 145 199 236 257 206 236 165 198 160 168 180 252 299 288 248 285 298 309 321 315 314 317
232 221 354 326 209 216 189 196 303 319 77 329 282 250 264 270 275 255 232 234 355 168 185 208 168 241 241 256 184 171 212 191 234 247 232 263 277 272 275 287 308 315 313 316 315
283 185 5 259 196 232 312 223 267 275 274 286 298 325 18 253 256 224 225 54 26 27 34 158 228 317 323 73 76 148 168 188 220 186 269 263 271 293 287 302 308 305 308 320 313
3 196 341 232 22 227 222 238 251 323 282 329 264 255 262 272 270 282 268 266 10 11 334 198 218 236 249 255 284 268 257 271 261 264 281 261 275 290 292 301 305 305 306 309 310
46 320 352 262 217 249 193 176 189 216 30 18 266 98 20 258 246 246 253 328 343 9 56 60 252 244 259 268 275 271 266 264 255 252 250 276 287 283 288 301 300 300 314 311 322
19 321 287 334 310 253 214 210 231 239 206 231 215 268 282 255 279 317 352 226 284 349 32 23 287 314 284 267 272 276 271 263 258 263 255 261 272 275 287 296 303 323 323 321 331
27 6 275 248 224 66 265 243 166 56 254 243 278 309 239 243 281 287 271 229 231 252 275 236 249 303 281 328 311 292 253 250 239 239 251 267 274 302 307 315 315 326 329 322 312